カタログに戻る

ARIANE 5 DEB

SYLDA

運用中HEO
NORAD 41750·DEBRIS·🇫🇷 France

打ち上げ Aug 24, 2016 から Guiana Space Centre

Loading…

次のパス (今後24時間)

TLE

最新Source: Space-Track

元期: Sep 14, 2026, 12:59 UTC

1 41750U 16053D   26257.54102040  .00007417  00000-0  25856-2 0  9997
2 41750   6.0709 100.6979 5764855 201.4019 118.8346  4.35903694112187

AllMySatでARIANE 5 DEBをリアルタイム追跡

Download on the App Store